THY4MJ LTBJ-LTFM

Flight info

Callsign THY4MJ
Flight time 0h 41m
Altitude 36000
Route BERGO UG80 DUGLA UZ713 INBET
Aircraft B738/M-SDE2E3FGHIRWXY/LB1

Departure

Time 2026-05-05 10:29
Airport Adnan Menderes International Airport (LTBJ)

Arrival

Time 2026-05-05 11:10
Airport İstanbul Airport (LTFM)
Time Latitude Longitude Altitude Speed Heading
2026-05-05 10:03 38.29246 27.15070 408 ft 0 kts 256°
2026-05-05 10:18 38.29249 27.15083 408 ft 2 kts 253°
2026-05-05 10:19 38.29252 27.15095 407 ft 0 kts 257°
2026-05-05 10:19 38.29256 27.15112 407 ft 2 kts 238°
2026-05-05 10:19 38.29265 27.15127 406 ft 2 kts 221°
2026-05-05 10:19 38.29277 27.15138 406 ft 2 kts 203°
2026-05-05 10:20 38.29292 27.15143 405 ft 2 kts 185°
2026-05-05 10:20 38.29305 27.15142 405 ft 0 kts 168°
2026-05-05 10:20 38.29311 27.15140 404 ft 1 kts 165°
2026-05-05 10:20 38.29312 27.15140 404 ft 0 kts 165°
2026-05-05 10:23 38.29267 27.15154 406 ft 13 kts 166°
2026-05-05 10:23 38.29160 27.15186 411 ft 16 kts 167°
2026-05-05 10:23 38.29062 27.15215 414 ft 12 kts 167°
2026-05-05 10:24 38.29006 27.15279 413 ft 11 kts 118°
2026-05-05 10:24 38.28928 27.15322 411 ft 13 kts 167°
2026-05-05 10:24 38.28832 27.15351 410 ft 15 kts 167°
2026-05-05 10:24 38.28720 27.15384 410 ft 16 kts 166°
2026-05-05 10:25 38.28608 27.15418 410 ft 17 kts 166°
2026-05-05 10:25 38.28478 27.15458 407 ft 21 kts 166°
2026-05-05 10:25 38.28323 27.15505 402 ft 23 kts 167°
2026-05-05 10:25 38.28160 27.15553 398 ft 24 kts 166°
2026-05-05 10:26 38.27984 27.15605 390 ft 27 kts 168°
2026-05-05 10:26 38.27832 27.15649 384 ft 13 kts 166°
2026-05-05 10:26 38.27759 27.15693 381 ft 10 kts 115°
2026-05-05 10:26 38.27766 27.15778 381 ft 9 kts 75°
2026-05-05 10:27 38.27784 27.15869 383 ft 12 kts 77°
2026-05-05 10:27 38.27800 27.15968 382 ft 11 kts 77°
2026-05-05 10:27 38.27820 27.16070 381 ft 12 kts 75°
2026-05-05 10:27 38.27828 27.16105 380 ft 2 kts 58°
2026-05-05 10:28 38.27895 27.16102 381 ft 21 kts 345°
2026-05-05 10:28 38.28281 27.15982 393 ft 89 kts 346°
2026-05-05 10:28 38.29082 27.15743 408 ft 144 kts 347°
2026-05-05 10:28 38.30159 27.15429 762 ft 159 kts 348°
2026-05-05 10:29 38.31252 27.15099 1318 ft 169 kts 349°
2026-05-05 10:29 38.32407 27.14757 1947 ft 173 kts 348°
2026-05-05 10:29 38.33580 27.14368 2494 ft 182 kts 346°
2026-05-05 10:29 38.34817 27.13954 3007 ft 194 kts 347°
2026-05-05 10:30 38.36185 27.13528 3481 ft 210 kts 348°
2026-05-05 10:30 38.37683 27.13104 3905 ft 231 kts 349°
2026-05-05 10:30 38.39289 27.12679 4673 ft 238 kts 349°
2026-05-05 10:30 38.40936 27.12217 5094 ft 256 kts 349°
2026-05-05 10:31 38.42675 27.11700 5890 ft 256 kts 348°
2026-05-05 10:31 38.44398 27.11168 6676 ft 259 kts 348°
2026-05-05 10:31 38.46134 27.10637 7330 ft 260 kts 348°
2026-05-05 10:31 38.47930 27.10109 7719 ft 270 kts 349°
2026-05-05 10:32 38.49754 27.09563 8572 ft 272 kts 348°
2026-05-05 10:32 38.51598 27.09007 9514 ft 272 kts 348°
2026-05-05 10:32 38.53367 27.08453 10574 ft 267 kts 348°
2026-05-05 10:32 38.55166 27.07888 11419 ft 271 kts 348°
2026-05-05 10:33 38.57019 27.07314 12314 ft 276 kts 347°
2026-05-05 10:33 38.58878 27.06746 13169 ft 280 kts 347°
2026-05-05 10:33 38.60791 27.06236 13988 ft 285 kts 352°
2026-05-05 10:33 38.62767 27.06198 14846 ft 288 kts
2026-05-05 10:34 38.64759 27.06549 15481 ft 299 kts
2026-05-05 10:34 38.66865 27.07022 15986 ft 314 kts
2026-05-05 10:34 38.69077 27.07507 16486 ft 328 kts
2026-05-05 10:34 38.71366 27.07972 16964 ft 342 kts
2026-05-05 10:35 38.73767 27.08430 17451 ft 353 kts
2026-05-05 10:35 38.76236 27.08887 17979 ft 365 kts
2026-05-05 10:35 38.78760 27.09352 18676 ft 371 kts
2026-05-05 10:35 38.81287 27.09818 19424 ft 375 kts
2026-05-05 10:36 38.83898 27.10300 20192 ft 379 kts
2026-05-05 10:36 38.86507 27.10783 20919 ft 383 kts
2026-05-05 10:36 38.89161 27.11274 21593 ft 388 kts
2026-05-05 10:36 38.91837 27.11768 22224 ft 394 kts
2026-05-05 10:37 38.94561 27.12272 22847 ft 399 kts
2026-05-05 10:37 38.97330 27.12785 23454 ft 405 kts
2026-05-05 10:37 39.00141 27.13306 24072 ft 410 kts
2026-05-05 10:37 39.02963 27.13826 24731 ft 413 kts
2026-05-05 10:38 39.05824 27.14349 25361 ft 416 kts
2026-05-05 10:38 39.08665 27.14866 25990 ft 419 kts
2026-05-05 10:38 39.11556 27.15391 26591 ft 423 kts
2026-05-05 10:38 39.14481 27.15922 27220 ft 425 kts
2026-05-05 10:39 39.17442 27.16462 27770 ft 429 kts
2026-05-05 10:39 39.20419 27.17005 28266 ft 434 kts
2026-05-05 10:39 39.23391 27.17550 28798 ft 438 kts
2026-05-05 10:39 39.26431 27.18108 29226 ft 440 kts
2026-05-05 10:40 39.29436 27.18662 29628 ft 437 kts
2026-05-05 10:40 39.32447 27.19218 30036 ft 435 kts
2026-05-05 10:40 39.35415 27.19767 30439 ft 434 kts
2026-05-05 10:40 39.38394 27.20318 30815 ft 432 kts
2026-05-05 10:41 39.41362 27.20865 31183 ft 429 kts
2026-05-05 10:41 39.44313 27.21411 31461 ft 424 kts
2026-05-05 10:41 39.47191 27.21931 31736 ft 424 kts
2026-05-05 10:41 39.50152 27.22285 32014 ft 424 kts 360°
2026-05-05 10:42 39.56032 27.22227 32562 ft 424 kts 354°
2026-05-05 10:42 39.58952 27.22026 32833 ft 425 kts 354°
2026-05-05 10:42 39.61918 27.21793 33108 ft 424 kts 354°
2026-05-05 10:43 39.64857 27.21559 33385 ft 422 kts 354°
2026-05-05 10:43 39.67777 27.21330 33656 ft 421 kts 354°
2026-05-05 10:43 39.70689 27.21110 33864 ft 421 kts 354°
2026-05-05 10:43 39.73638 27.20895 33704 ft 424 kts 354°
2026-05-05 10:44 39.76557 27.20688 33154 ft 424 kts 354°
2026-05-05 10:44 39.79505 27.20484 32475 ft 423 kts 354°
2026-05-05 10:44 39.82434 27.20285 31803 ft 423 kts 354°
2026-05-05 10:44 39.85358 27.20088 31135 ft 424 kts 354°
2026-05-05 10:45 39.88319 27.19889 30460 ft 428 kts 354°
2026-05-05 10:45 39.91291 27.19688 29808 ft 429 kts 354°
2026-05-05 10:45 39.94278 27.19539 29163 ft 433 kts 356°
2026-05-05 10:45 39.97284 27.19628 28521 ft 436 kts
2026-05-05 10:46 40.00261 27.20147 27889 ft 440 kts
2026-05-05 10:46 40.03278 27.21051 27243 ft 443 kts 11°
2026-05-05 10:46 40.06250 27.22153 26604 ft 446 kts 13°
2026-05-05 10:46 40.09208 27.23357 25973 ft 447 kts 14°
2026-05-05 10:47 40.12168 27.24609 25346 ft 448 kts 15°
2026-05-05 10:47 40.15094 27.25881 25079 ft 441 kts 15°
2026-05-05 10:47 40.18048 27.27061 25077 ft 444 kts 12°
2026-05-05 10:47 40.21067 27.27850 25077 ft 443 kts
2026-05-05 10:48 40.24096 27.28269 25077 ft 440 kts
2026-05-05 10:48 40.27174 27.28498 25071 ft 439 kts
2026-05-05 10:48 40.30182 27.28644 24934 ft 435 kts
2026-05-05 10:48 40.33177 27.29203 24214 ft 435 kts 13°
2026-05-05 10:49 40.35930 27.30797 23365 ft 439 kts 29°
2026-05-05 10:49 40.38232 27.33383 22615 ft 441 kts 46°
2026-05-05 10:49 40.39941 27.36682 21969 ft 440 kts 57°
2026-05-05 10:49 40.41288 27.40244 21315 ft 436 kts 62°
2026-05-05 10:50 40.42490 27.43851 20625 ft 432 kts 64°
2026-05-05 10:50 40.43640 27.47472 19976 ft 426 kts 64°
2026-05-05 10:50 40.44758 27.51056 19278 ft 422 kts 64°
2026-05-05 10:50 40.45847 27.54555 18653 ft 416 kts 64°
2026-05-05 10:51 40.46923 27.58011 18025 ft 410 kts 64°
2026-05-05 10:51 40.48004 27.61476 17369 ft 405 kts 64°
2026-05-05 10:51 40.49052 27.64823 16856 ft 400 kts 64°
2026-05-05 10:51 40.50107 27.68200 16406 ft 400 kts 65°
2026-05-05 10:52 40.51173 27.71607 16043 ft 406 kts 65°
2026-05-05 10:52 40.52246 27.75029 15641 ft 404 kts 65°
2026-05-05 10:52 40.53302 27.78391 15239 ft 400 kts 65°
2026-05-05 10:52 40.54350 27.81738 14826 ft 396 kts 65°
2026-05-05 10:53 40.55396 27.85090 14423 ft 394 kts 65°
2026-05-05 10:53 40.56422 27.88384 14029 ft 392 kts 65°
2026-05-05 10:53 40.57453 27.91696 13618 ft 389 kts 65°
2026-05-05 10:53 40.58471 27.94969 13236 ft 387 kts 65°
2026-05-05 10:54 40.59482 27.98218 12839 ft 385 kts 65°
2026-05-05 10:54 40.60490 28.01460 12442 ft 382 kts 65°
2026-05-05 10:54 40.61492 28.04691 12030 ft 379 kts 65°
2026-05-05 10:54 40.62482 28.07880 11648 ft 376 kts 65°
2026-05-05 10:55 40.63502 28.10991 11255 ft 365 kts 63°
2026-05-05 10:55 40.64562 28.13942 10975 ft 349 kts 61°
2026-05-05 10:55 40.65616 28.16690 10766 ft 334 kts 59°
2026-05-05 10:55 40.66680 28.19334 10560 ft 320 kts 59°
2026-05-05 10:56 40.67714 28.21868 10409 ft 305 kts 58°
2026-05-05 10:56 40.68688 28.24272 10280 ft 291 kts 58°
2026-05-05 10:56 40.69609 28.26569 10159 ft 278 kts 58°
2026-05-05 10:56 40.70492 28.28784 9827 ft 274 kts 59°
2026-05-05 10:57 40.71373 28.30999 9475 ft 271 kts 59°
2026-05-05 10:57 40.72240 28.33188 9072 ft 270 kts 59°
2026-05-05 10:57 40.73104 28.35377 8654 ft 269 kts 59°
2026-05-05 10:57 40.73955 28.37541 8274 ft 268 kts 59°
2026-05-05 10:58 40.74811 28.39716 7843 ft 267 kts 59°
2026-05-05 10:58 40.75664 28.41886 7436 ft 266 kts 59°
2026-05-05 10:58 40.76514 28.44044 7039 ft 264 kts 59°
2026-05-05 10:58 40.77360 28.46185 6656 ft 262 kts 59°
2026-05-05 10:59 40.78203 28.48320 6256 ft 261 kts 59°
2026-05-05 10:59 40.79024 28.50407 5870 ft 260 kts 59°
2026-05-05 10:59 40.79858 28.52527 5466 ft 259 kts 59°
2026-05-05 10:59 40.80684 28.54635 5078 ft 257 kts 59°
2026-05-05 11:00 40.81492 28.56702 4825 ft 251 kts 59°
2026-05-05 11:00 40.82286 28.58727 4583 ft 244 kts 59°
2026-05-05 11:00 40.83031 28.60635 4349 ft 230 kts 59°
2026-05-05 11:00 40.83749 28.62478 4161 ft 220 kts 59°
2026-05-05 11:01 40.84439 28.64246 3990 ft 214 kts 59°
2026-05-05 11:01 40.85120 28.65981 3995 ft 214 kts 59°
2026-05-05 11:01 40.85823 28.67704 3983 ft 214 kts 54°
2026-05-05 11:01 40.86800 28.69143 3986 ft 210 kts 31°
2026-05-05 11:02 40.88094 28.70028 3995 ft 209 kts 23°
2026-05-05 11:02 40.89434 28.70836 3981 ft 209 kts 24°
2026-05-05 11:02 40.90730 28.71680 3989 ft 209 kts 26°
2026-05-05 11:02 40.92031 28.72564 3990 ft 210 kts 26°
2026-05-05 11:03 40.93325 28.73452 3995 ft 210 kts 26°
2026-05-05 11:03 40.94621 28.74340 3993 ft 209 kts 26°
2026-05-05 11:03 40.95911 28.75222 3990 ft 208 kts 26°
2026-05-05 11:03 40.97180 28.76025 3985 ft 194 kts 18°
2026-05-05 11:04 40.98488 28.76306 4000 ft 193 kts 359°
2026-05-05 11:04 40.99837 28.76209 3996 ft 193 kts 358°
2026-05-05 11:04 41.01179 28.76145 3993 ft 193 kts 359°
2026-05-05 11:04 41.02528 28.76116 4001 ft 193 kts 360°
2026-05-05 11:05 41.03860 28.76091 4017 ft 191 kts 359°
2026-05-05 11:05 41.05180 28.76057 3981 ft 189 kts 359°
2026-05-05 11:05 41.06470 28.76017 3987 ft 183 kts 359°
2026-05-05 11:05 41.07726 28.75972 3943 ft 181 kts 359°
2026-05-05 11:06 41.08989 28.75912 3761 ft 180 kts 359°
2026-05-05 11:06 41.10230 28.75887 3562 ft 179 kts
2026-05-05 11:06 41.11490 28.75887 3359 ft 179 kts
2026-05-05 11:06 41.12742 28.75880 3109 ft 180 kts
2026-05-05 11:07 41.13987 28.75868 2822 ft 173 kts
2026-05-05 11:07 41.15143 28.75865 2555 ft 161 kts
2026-05-05 11:07 41.16228 28.75868 2274 ft 151 kts
2026-05-05 11:07 41.17287 28.75883 2093 ft 155 kts
2026-05-05 11:08 41.18366 28.75890 1925 ft 154 kts 359°
2026-05-05 11:08 41.19413 28.75859 1766 ft 144 kts 358°
2026-05-05 11:08 41.20399 28.75823 1530 ft 140 kts 358°
2026-05-05 11:08 41.21378 28.75777 1311 ft 139 kts 358°
2026-05-05 11:09 41.22332 28.75761 1124 ft 137 kts 359°
2026-05-05 11:09 41.23304 28.75728 944 ft 141 kts 359°
2026-05-05 11:09 41.24279 28.75705 753 ft 141 kts 359°
2026-05-05 11:09 41.25261 28.75685 568 ft 140 kts 359°
2026-05-05 11:10 41.26229 28.75668 383 ft 140 kts 359°
2026-05-05 11:10 41.27149 28.75649 333 ft 108 kts 359°
2026-05-05 11:10 41.27652 28.75638 333 ft 42 kts 359°
2026-05-05 11:10 41.27919 28.75625 333 ft 31 kts 351°
2026-05-05 11:11 41.28090 28.75513 333 ft 24 kts 325°
2026-05-05 11:11 41.28141 28.75423 333 ft 9 kts 256°
2026-05-05 11:11 41.28086 28.75388 333 ft 10 kts 181°
2026-05-05 11:11 41.28005 28.75387 333 ft 16 kts 179°
2026-05-05 11:12 41.27884 28.75389 333 ft 17 kts 180°
2026-05-05 11:12 41.27763 28.75390 333 ft 17 kts 180°
2026-05-05 11:12 41.27646 28.75392 333 ft 16 kts 179°
2026-05-05 11:12 41.27531 28.75396 333 ft 16 kts 179°
2026-05-05 11:13 41.27419 28.75396 333 ft 15 kts 180°
2026-05-05 11:13 41.27311 28.75396 333 ft 15 kts 179°
2026-05-05 11:13 41.27204 28.75399 333 ft 15 kts 180°
2026-05-05 11:13 41.27102 28.75399 333 ft 14 kts 180°
2026-05-05 11:14 41.27000 28.75402 333 ft 14 kts 178°
2026-05-05 11:14 41.26902 28.75406 333 ft 13 kts 178°
2026-05-05 11:14 41.26806 28.75410 333 ft 13 kts 178°
2026-05-05 11:14 41.26713 28.75414 333 ft 13 kts 178°
2026-05-05 11:15 41.26622 28.75418 333 ft 12 kts 178°
2026-05-05 11:15 41.26535 28.75423 333 ft 12 kts 178°
2026-05-05 11:15 41.26449 28.75427 333 ft 12 kts 179°
2026-05-05 11:15 41.26366 28.75428 333 ft 11 kts 180°
2026-05-05 11:16 41.26288 28.75429 333 ft 10 kts 180°
2026-05-05 11:16 41.26238 28.75379 333 ft 9 kts 257°
2026-05-05 11:16 41.26236 28.75292 333 ft 11 kts 269°
2026-05-05 11:16 41.26236 28.75174 333 ft 12 kts 270°
2026-05-05 11:17 41.26233 28.75059 333 ft 11 kts 254°
2026-05-05 11:17 41.26168 28.75023 333 ft 11 kts 167°
2026-05-05 11:17 41.26094 28.75052 333 ft 10 kts 181°
2026-05-05 11:17 41.26057 28.74989 333 ft 8 kts 252°
2026-05-05 11:18 41.26042 28.74926 333 ft 1 kts 250°
2026-05-05 11:18 41.26041 28.74920 333 ft 0 kts 250°